[[{"header":{"parameterUnit":"m.s-1","parameterCategory":1,"la1":30.2991,"la2":30.254,"lo1":-89.0895,"lo2":-89.0444,"dy":0.0017,"dx":0.0017,"nx":28,"ny":28,"refTime":"2025-06-01T21:00:00:Z","depth":0,"parameterNumber":2,"parameterNumberName":"U-component_of_WINDS"},"data":[0,0,0,0,0,0,0,0,0,0,0,0,0,0,0,0,0,0,0,0,0,0,0,0,0,0,0,0,0,0,0,0,0,0,0,0,0,0,0,0,0,0,0,0,0,0,0,0,0,0,0,0,0,0,0,0,0,0,2.1267,2.1268,0,2.1292,2.1292,2.1292,2.1251,2.125,2.1248,2.1247,2.1273,2.1275,2.1277,0,0,0,0,0,0,0,0,0,0,0,0,0,2.1185,2.1187,2.1267,2.1268,2.1268,2.1291,2.1292,2.1292,2.1251,2.125,2.1248,2.1246,2.1272,2.1274,2.1277,0,0,0,0,0,0,0,0,0,0,0,0,0,2.1216,2.1187,2.1267,2.125,2.1249,2.1291,2.1292,2.1292,2.1252,2.125,2.1247,2.1246,2.1271,2.1274,2.1277,2.1337,0,0,2.1286,2.1287,0,0,0,0,0,0,0,0,2.1215,2.1219,2.1253,2.1252,2.125,2.1266,2.1272,2.1307,2.1252,2.1251,2.1247,2.1245,2.1272,2.1275,2.1284,2.1339,2.134,2.1286,2.1288,2.129,2.129,0,0,0,0,0,0,0,2.1212,2.1218,2.1277,2.1253,2.1252,2.1241,2.1243,2.1279,2.1273,2.1251,2.1248,2.1251,2.1271,2.1281,2.1284,2.134,2.1286,2.1289,2.1291,2.1292,2.1441,2.1443,0,0,0,0,0,0,2.1212,2.1217,2.1276,2.1278,2.1227,2.1244,2.1247,2.1263,2.1272,2.1272,2.1253,2.1249,2.1277,2.1281,2.1285,2.1353,2.129,2.1292,2.1294,2.1439,2.1441,2.1444,0,0,0,0,0,0,2.1211,2.1218,2.1275,2.1246,2.1253,2.1248,2.1267,2.1265,2.1275,2.1274,2.1273,2.1264,2.1276,2.1281,2.1324,2.1354,2.1294,2.1296,2.1436,2.144,2.1443,2.1492,0,0,0,0,0,0,2.1209,2.1218,2.1241,2.1247,2.1254,2.1314,2.1269,2.1267,2.128,2.1275,2.1285,2.1284,2.1275,2.1319,2.1327,2.1357,2.1299,2.1434,2.1438,2.1442,2.1487,2.1496,2.1504,0,0,0,0,0,2.1206,2.1255,2.1242,2.125,2.1283,2.1316,2.132,2.1308,2.1283,2.1305,2.1304,2.1284,2.135,2.1324,2.1332,2.1363,2.1432,2.1437,2.1441,2.1484,2.1495,2.1504,0,0,0,0,0,0,2.1254,2.1256,2.1242,2.1294,2.1305,2.1309,2.1337,2.132,2.1338,2.1333,2.1318,2.132,2.1365,2.1369,2.1341,2.142,2.1386,2.1393,2.1416,2.1426,2.1434,2.1432,2.1301,0,0,0,0,0,2.127,2.1296,2.1297,2.1343,2.1349,2.1342,2.1356,2.1345,2.1356,2.136,2.1363,2.1374,2.1396,2.1412,2.1433,2.1488,2.1488,2.1514,2.1522,2.1529,2.1534,2.156,2.157,2.146,2.146,2.146,0,0,2.1305,2.1309,2.1327,2.1353,2.1359,2.1386,2.1346,2.1377,2.1396,2.1365,2.1404,2.1407,2.1418,2.1466,2.1487,2.147,2.1564,2.1535,2.154,2.1542,2.1566,2.1576,2.1586,2.1463,2.1463,2.1462,0,0,2.1381,2.1388,2.1425,2.1433,2.1443,2.1438,2.1447,2.1453,2.1452,2.1492,2.1468,2.1491,2.1531,2.1539,2.1548,2.1625,2.1605,2.1632,2.1675,2.17,2.1709,2.1716,2.1741,2.175,2.1638,2.1638,2.1638,0,2.1422,2.1461,2.1447,2.1478,2.1489,2.1461,2.1498,2.1506,2.1524,2.1531,2.1512,2.156,2.1566,2.1614,2.1632,2.1642,2.165,2.163,2.1709,2.1716,2.1723,2.1746,2.1755,2.1641,2.1641,2.164,2.164,0,2.151,2.1537,2.1566,2.1582,2.1596,2.163,2.162,2.1637,2.1625,2.1621,2.166,2.1666,2.1686,2.1698,2.1687,2.1743,2.1732,2.1711,2.1676,2.1737,2.1758,2.1767,2.1645,2.1644,2.1643,2.1643,0,0,2.1617,2.1622,2.1633,2.1638,2.1647,2.1667,2.1699,2.1718,2.1731,2.1744,2.1769,2.1803,2.1782,2.1793,2.1783,2.1806,2.1862,2.1782,2.1782,2.1794,2.1921,2.1934,2.1945,2.185,2.1852,2.1853,2.1919,0,2.169,2.1744,2.1731,2.1784,2.1807,2.178,2.1808,2.1816,2.1813,2.1832,2.1829,2.1852,2.1826,2.1831,2.1853,2.1851,2.1887,2.1846,2.1871,2.1872,2.1867,2.1956,2.1972,2.2034,2.1927,2.1929,2.193,0,2.1782,2.1796,2.1851,2.1852,2.1862,2.1887,2.1901,2.192,2.1928,2.1924,2.1935,2.192,2.195,2.1916,2.1957,2.1929,2.1939,2.1939,2.1941,2.1941,2.1903,2.1956,2.2053,2.2062,2.1943,2.1942,2.1941,0,2.185,2.1883,2.1919,2.1925,2.1929,2.1946,2.1949,2.1954,2.1966,2.1979,2.1985,2.2003,2.2012,2.2025,2.2014,2.1991,2.2055,2.2021,2.2051,2.2051,2.2064,2.2063,2.2162,2.2075,2.2075,2.2075,2.2075,0,2.1931,2.1965,2.1949,2.1971,2.2007,2.1992,2.2029,2.2028,2.2033,2.2054,2.2033,2.2053,2.2039,2.2057,2.205,2.2082,2.2087,2.2084,2.2081,2.2084,2.2084,2.2089,2.2083,2.2077,2.2077,2.2076,2.2076,0,2.2013,2.2004,2.2041,2.2041,2.2041,2.2068,2.2068,2.2087,2.2083,2.2109,2.2114,2.2107,2.2128,2.2119,2.2141,2.2135,2.2176,2.2169,2.2173,2.217,2.22,2.2196,2.2303,2.2314,2.2223,2.2224,2.2225,0,2.2064,2.2088,2.209,2.2102,2.2105,2.2126,2.2136,2.2122,2.2134,2.2143,2.2161,2.218,2.2193,2.2227,2.2223,2.224,2.2231,2.2267,2.2233,2.2235,2.2228,2.2225,2.2226,2.2273,2.2274,2.2275,2.2276,0,2.2154,2.2147,2.2163,2.2177,2.219,2.22,2.2209,2.222,2.2206,2.222,2.224,2.225,2.2272,2.2289,2.2303,2.2305,2.2287,2.2287,2.2294,2.2296,2.2296,2.2294,2.2189,2.2284,2.2283,2.2282,2.2282,2.2282,2.2219,2.2239,2.2242,2.226,2.2264,2.2272,2.229,2.2287,2.2303,2.2318,2.2309,2.2332,2.2337,2.2353,2.2357,2.2374,2.236,2.2371,2.2374,2.2376,2.2378,2.2296,2.2377,2.2377,2.2377,2.2376,2.2376,0,2.2306,2.2306,2.2322,2.2334,2.2347,2.2329,2.2337,2.2349,2.2369,2.2375,2.2388,2.241,2.2426,2.2424,2.2439,2.2453,2.2445,2.2457,2.2454,2.2454,2.2392,2.2383,2.2463,2.2463,2.2463,2.2463,2.2463,2.2463,2.2352,2.2383,2.2377,2.2409,2.241,2.243,2.2436,2.2443,2.2447,2.2472,2.2485,2.2483,2.2485,2.2499,2.2513,2.2512,2.2517,2.2531,2.2527,2.2468,2.2459,2.2451,2.2442,2.2533,2.2533,2.2588,2.2588,2.2589]},{"header":{"parameterUnit":"m.s-1","parameterCategory":1,"la1":30.2991,"la2":30.254,"lo1":-89.0895,"lo2":-89.0444,"dy":0.0017,"dx":0.0017,"nx":28,"ny":28,"refTime":"2025-06-01T21:00:00:Z","depth":0,"parameterNumber":3,"parameterNumberName":"V-component_of_WINDS"},"data":[0,0,0,0,0,0,0,0,0,0,0,0,0,0,0,0,0,0,0,0,0,0,0,0,0,0,0,0,0,0,0,0,0,0,0,0,0,0,0,0,0,0,0,0,0,0,0,0,0,0,0,0,0,0,0,0,0,0,5.2589,5.2588,0,5.2509,5.2508,5.2507,5.2395,5.2393,5.2391,5.2389,5.2307,5.2307,5.2307,0,0,0,0,0,0,0,0,0,0,0,0,0,5.2644,5.2644,5.2589,5.2588,5.2587,5.2509,5.2508,5.2507,5.2395,5.2393,5.2391,5.2388,5.2307,5.2307,5.2306,0,0,0,0,0,0,0,0,0,0,0,0,0,5.2598,5.2644,5.2589,5.2522,5.2515,5.2509,5.2508,5.2507,5.2396,5.2393,5.239,5.2387,5.2308,5.2307,5.2306,5.236,0,0,5.2305,5.2304,0,0,0,0,0,0,0,0,5.2601,5.2596,5.2533,5.2527,5.2519,5.2459,5.2497,5.2458,5.2397,5.2441,5.2389,5.2386,5.236,5.2355,5.2346,5.2356,5.2353,5.2304,5.2304,5.2304,5.2304,0,0,0,0,0,0,0,5.2604,5.2599,5.2557,5.2532,5.2524,5.2495,5.2486,5.2489,5.2418,5.2437,5.2429,5.2421,5.2356,5.2347,5.2344,5.2352,5.2305,5.2304,5.2304,5.2303,5.2399,5.2402,0,0,0,0,0,0,5.2617,5.2602,5.256,5.2555,5.2554,5.2497,5.2486,5.2481,5.2417,5.2405,5.2423,5.2416,5.235,5.2344,5.234,5.2396,5.2304,5.2303,5.2303,5.2396,5.24,5.2403,0,0,0,0,0,0,5.2619,5.2615,5.2563,5.2576,5.2568,5.2499,5.2494,5.2481,5.2472,5.2407,5.2394,5.2428,5.2347,5.2341,5.2355,5.2392,5.2303,5.2302,5.2393,5.2397,5.2401,5.2511,0,0,0,0,0,0,5.2621,5.2616,5.2636,5.2578,5.2567,5.258,5.2497,5.2482,5.2472,5.2461,5.2407,5.2396,5.2344,5.2357,5.2355,5.239,5.2302,5.2389,5.2395,5.24,5.2504,5.2519,5.2532,0,0,0,0,0,5.2623,5.267,5.2637,5.2633,5.2591,5.2583,5.2577,5.2516,5.2475,5.2494,5.2452,5.2398,5.2389,5.2359,5.2356,5.2391,5.2386,5.2393,5.2399,5.2498,5.2516,5.2531,0,0,0,0,0,0,5.2735,5.2661,5.2624,5.2654,5.2625,5.2564,5.2586,5.2538,5.2521,5.2511,5.2438,5.2426,5.245,5.2422,5.239,5.2439,5.2379,5.2386,5.2455,5.2472,5.2486,5.2491,5.2302,0,0,0,0,0,5.2763,5.2762,5.2698,5.2731,5.2718,5.2655,5.2649,5.2605,5.2573,5.256,5.2519,5.2489,5.2479,5.2475,5.2463,5.2501,5.2486,5.2523,5.2537,5.2549,5.2554,5.257,5.2585,5.2424,5.2424,5.2424,0,0,5.282,5.278,5.2785,5.2752,5.2725,5.2725,5.2645,5.265,5.2649,5.2561,5.2571,5.254,5.2502,5.2528,5.2537,5.2506,5.2595,5.2557,5.2567,5.2565,5.2578,5.2593,5.2607,5.2429,5.2428,5.2427,0,0,5.2925,5.2896,5.2918,5.2892,5.2852,5.281,5.2816,5.2761,5.2737,5.2747,5.268,5.2678,5.2664,5.2638,5.2624,5.272,5.2668,5.2718,5.2789,5.2805,5.2818,5.2828,5.286,5.2872,5.2724,5.2724,5.2724,0,5.3001,5.2999,5.2936,5.2944,5.2931,5.2851,5.2873,5.2851,5.2809,5.2802,5.2768,5.2747,5.2716,5.2733,5.2757,5.2749,5.2751,5.2722,5.2821,5.2831,5.284,5.2869,5.2882,5.273,5.273,5.2729,5.2728,0,5.3094,5.3094,5.3117,5.3078,5.3068,5.3084,5.3021,5.3019,5.2977,5.2938,5.2948,5.2908,5.2885,5.2887,5.2846,5.2898,5.2879,5.2835,5.2773,5.2863,5.2889,5.29,5.2739,5.2737,5.2735,5.2734,0,0,5.3264,5.319,5.32,5.318,5.313,5.3129,5.314,5.3118,5.3116,5.3091,5.3097,5.3087,5.3044,5.3028,5.2983,5.2998,5.3073,5.295,5.2948,5.2972,5.3126,5.3158,5.3172,5.304,5.3042,5.3043,5.3128,0,5.3357,5.3371,5.3315,5.3344,5.3342,5.3267,5.3277,5.3247,5.3211,5.3204,5.3164,5.3157,5.3103,5.3092,5.3104,5.3062,5.3102,5.3055,5.3043,5.3043,5.3052,5.3186,5.322,5.3302,5.3138,5.314,5.3141,0,5.3466,5.3446,5.3475,5.3422,5.3419,5.3429,5.3403,5.3399,5.3363,5.3336,5.3318,5.3266,5.3273,5.3216,5.3223,5.3192,5.3184,5.3162,5.3164,5.3158,5.3096,5.3181,5.3327,5.3339,5.3157,5.3156,5.3155,0,5.3584,5.3564,5.3578,5.3565,5.3505,5.3513,5.3488,5.345,5.344,5.3418,5.341,5.339,5.3378,5.3363,5.3306,5.3271,5.3319,5.3258,5.3295,5.3296,5.3306,5.3306,5.345,5.3306,5.3306,5.3306,5.3306,0,5.3691,5.3711,5.363,5.3639,5.3659,5.3594,5.3615,5.3583,5.355,5.355,5.3485,5.3486,5.3413,5.3406,5.3363,5.3374,5.337,5.3346,5.3334,5.3351,5.3353,5.3342,5.3334,5.3309,5.3308,5.3308,5.3307,0,5.3825,5.3772,5.3782,5.3724,5.371,5.3728,5.3678,5.3683,5.3644,5.3645,5.3641,5.3579,5.3568,5.3511,5.3487,5.3457,5.3482,5.3459,5.3494,5.3485,5.3524,5.352,5.3664,5.3678,5.3529,5.353,5.3532,0,5.3895,5.3909,5.3853,5.3849,5.3827,5.3821,5.3811,5.3748,5.3739,5.37,5.3709,5.3693,5.3675,5.3661,5.3613,5.3593,5.3568,5.362,5.3564,5.358,5.3565,5.3564,5.3564,5.3631,5.3633,5.3634,5.3635,0,5.4025,5.3998,5.3986,5.3964,5.3954,5.3934,5.3909,5.391,5.3839,5.3833,5.3821,5.3808,5.3782,5.3766,5.3738,5.3712,5.3661,5.3654,5.366,5.3676,5.3694,5.3682,5.3523,5.365,5.3649,5.3647,5.3647,5.3646,5.4127,5.4135,5.4097,5.4085,5.406,5.4039,5.4041,5.4002,5.3991,5.3965,5.3929,5.3921,5.3884,5.3842,5.3819,5.3811,5.3783,5.3794,5.3796,5.3799,5.3806,5.3698,5.3807,5.3806,5.3806,5.3805,5.3805,0,5.4251,5.4223,5.4213,5.4181,5.4172,5.4127,5.4098,5.4093,5.4087,5.4057,5.4042,5.4027,5.4011,5.3962,5.394,5.3943,5.392,5.3939,5.3937,5.3931,5.3834,5.3829,5.3959,5.3959,5.3959,5.3959,5.3959,5.3959,5.4314,5.4325,5.4294,5.4291,5.4262,5.4254,5.4241,5.4221,5.4197,5.4183,5.417,5.4139,5.4101,5.4076,5.4059,5.4044,5.4038,5.4065,5.4044,5.3953,5.3938,5.3924,5.3919,5.4065,5.4066,5.4141,5.4141,5.4142]}]]